Regional Weather Roundup
Issued by NWS

Home | Current Version | Previous Version | Graphics & Text | Print | Product List | Glossary On
Versions: 1 2 3 4 5 6 7 8 9 10 11 12 13 14 15 16 17 18 19 20 21 22 23 24 25 26 27 28 29 30 31 32 33 34 35 36 37 38 39 40 41 42 43 44 45 46 47 48 49 50
000
ASUS43 KMPX 290110
RWRMN
WEATHER ROUNDUP FOR MINNESOTA
NATIONAL WEATHER SERVICE TWIN CITIES/CHANHASSEN MN
800 PM CDT THU JUL 28 2016


NOTE: "FAIR" INDICATES FEW OR NO CLOUDS BELOW 12,000 FEET WITH NO
SIGNIFICANT WEATHER AND/OR OBSTRUCTIONS TO VISIBILITY. N/A MEANS
CURRENT SKY AND/OR WEATHER CONDITIONS ARE NOT AVAILABLE.

MNZ060>063-068>070-290200-
   Twin Cities Metro

CITY           SKY/WX    TMP DP  RH WIND       PRES   REMARKS
TWIN CITIES    MOCLDY    74  58  57 VRB7      30.03S
ST PAUL        CLOUDY    73  57  57 N7        30.03S
CRYSTAL        CLOUDY    73  56  54 N9        30.02S
BLAINE         MOCLDY    73  61  64 N8        30.04S
LAKEVILLE      CLOUDY    70  57  64 N8        30.03S
EDEN PRAIRIE   CLOUDY    74  55  51 NE8       30.02S
LAKEVILLE      CLOUDY    70  57  64 N8        30.03S
SOUTH ST PAUL  CLOUDY    73  57  56 N5        30.02S
LAKE ELMO      CLOUDY    72  59  64 N6        30.04S
$$
MNZ001>005-007-008-013>017-022>024-027-028-290200-
   Northwest Minnesota

CITY           SKY/WX    TMP DP  RH WIND       PRES   REMARKS
BEMIDJI        CLEAR     72  55  56 N5        30.09S
HALLOCK        CLEAR     72  55  56 N5        30.08F
ROSEAU         CLEAR     70  59  68 E5        30.09S
WARROAD        CLEAR     72  57  60 CALM      30.09F
THIEF RVR FALL CLEAR     72  55  55 N5        30.09F
CROOKSTON      CLEAR     72  55  56 N5        30.08F
FOSSTON        CLEAR     72  55  56 N7        30.09S
DETROIT LAKES  CLEAR     73  57  56 N7        30.08R
MOORHEAD       CLEAR     73  61  64 N9        30.06S
PARK RAPIDS    PTCLDY    74  55  51 NE6       30.07S
MAHNOMEN       FAIR      72  59  63 N8        30.08S
$$
MNZ006-009>011-018-025>026-290200-
   North Central Minnesota

CITY           SKY/WX    TMP DP  RH WIND       PRES   REMARKS
BAUDETTE       CLEAR     71  55  56 N5        30.08S
FLAG ISLAND    CLEAR     72  52  49 CALM      30.08S
INTL FALLS     CLEAR     74  52  46 CALM      30.06F
WASKISH        PTCLDY    73  57  56 N5        30.07S
BIG FORK       MOCLDY    70  61  73 CALM      30.07S
LONGVILLE      CLEAR     72  57  60 CALM      30.07S
GRAND RAPIDS   CLOUDY    70  63  78 CALM      30.08S
CRANE LAKE     CLEAR     72  55  56 NE1       30.08S
ORR            CLEAR     66  55  68 CALM      30.05S
COOK           PTCLDY    72  57  60 CALM      30.07S
WALKER         FAIR      71  55  56 N6        30.08S
$$
MNZ012-019>021-037-290200-
   Northeast Minnesota

CITY           SKY/WX    TMP DP  RH WIND       PRES   REMARKS
DULUTH         PTCLDY    65  50  58 E8        30.09S
ELY            CLEAR     73  48  40 CALM      30.08S
HIBBING        CLOUDY    67  54  63 SE7       30.08R
EVELETH        PTCLDY    65  52  62 SE3       30.10R
DULUTH HARBOR  CLEAR     64  61  88 NE10      30.09S
TWO HARBORS    CLEAR     66  54  63 E5        30.08S
SILVER BAY     CLEAR     64  52  63 CALM      30.09S
GRAND MARAIS     N/A     63  52  67 CALM      30.09S
G MARAIS ARPRT CLEAR     57  48  72 CALM      30.13S
$$
MNZ029>031-032-039>041-046>048-054>057-064-290200-
   West Central Minnesota

CITY           SKY/WX    TMP DP  RH WIND       PRES   REMARKS
FERGUS FALLS   PTCLDY    75  61  60 CALM      30.05F
WHEATON        CLEAR     75  64  69 NE3       30.06R
MORRIS         CLEAR     72  61  68 E5        30.04S
ALEXANDRIA     MOCLDY    72  56  57 E6        30.07F
ELBOW LAKE     FAIR      72  62  69 SE7       30.06R
GLENWOOD       CLEAR     70  59  68 NE7       30.07S
APPLETON       CLEAR     73  59  60 E3        30.04R
BENSON         CLEAR     73  55  53 CALM      30.05R
ORTONVILLE     CLEAR     75  57  53 CALM      30.05R
MADISON        CLEAR     72  61  68 CALM      30.05R
WILLMAR        FAIR      73  57  56 NE6       30.05S
$$
MNZ033>034-036-042>043-049>051-058-059-290200-
   Central Minnesota

CITY           SKY/WX    TMP DP  RH WIND       PRES   REMARKS
ST CLOUD       PTCLDY    71  55  56 NE5       30.06R
SAUK CENTRE    FAIR      71  57  60 E5        30.06F
PAYNESVILLE    CLEAR     71  56  60 NE8       30.05F
AITKIN         PTCLDY    70  55  60 E5        30.07R
PINE RIVER     CLEAR     73  57  56 N3        30.09S
BRAINERD       PTCLDY    72  59  63 SE7       30.06S
STAPLES        CLEAR     73  57  56 CALM      30.07R
LONG PRAIRIE   FAIR      70  59  68 E3        30.07S
LITTLE FALLS   CLEAR     68  55  64 SE3       30.07S
LITCHFIELD     CLEAR     73  59  60 NE6       30.05S
BUFFALO        MOCLDY    73  56  56 N7        30.05F
MAPLE LAKE     CLEAR     72  58  62 NE3       30.05F
HUTCHINSON     CLEAR     73  60  63 NE10      30.04F
$$
MNZ037-044-045-052-053-290200-
   East Central Minnesota

CITY           SKY/WX    TMP DP  RH WIND       PRES   REMARKS
PRINCETON      CLOUDY    73  57  56 N6        30.06S
MORA           PTCLDY    68  55  64 CALM      30.08S
CAMBRIDGE      PTCLDY    73  57  56 NE7       30.04S
RUSH CITY      PTCLDY    67  58  73 NE5       30.06S
MOOSE LAKE     CLEAR     68  54  60 CALM      30.07R
HINCKLEY       FAIR      68  57  68 CALM      30.08R
CLOQUET        CLEAR     64  50  59 E3        30.09S
MCGREGOR       PTCLDY    64  54  68 CALM      30.09R
$$
MNZ071>073-080-081-089-090-097-098-290200-
   Southwest Minnesota

CITY           SKY/WX    TMP DP  RH WIND       PRES   REMARKS
MONTEVIDEO     CLEAR     73  59  60 E5        30.06S
GRANITE FALLS  CLEAR     73  58  59 NE5       30.05S
CANBY          CLEAR     73  58  58 CALM      30.07R
MARSHALL       CLEAR     71  58  63 N5        30.05R
REDWOOD FALLS  CLEAR     73  58  59 NE6       30.03S
OLIVIA         CLEAR     72  55  56 NE5       30.04R
PIPESTONE      PTCLDY    72  54  53 NE7       30.06S
WINDOM         CLOUDY    72  61  68 NE6       30.05R
WORTHINGTON    PTCLDY    70  60  70 N8        30.04S
JACKSON        CLOUDY    70  61  73 NE9       30.04S
TRACY          CLEAR     71  60  67 N3        30.05R
SLAYTON        MOCLDY    69  58  66 N5        30.06S
$$
MNZ065>067-074>077-082>085-091>093-290200-
   South Central Minnesota

CITY           SKY/WX    TMP DP  RH WIND       PRES   REMARKS
MANKATO        CLOUDY    73  59  60 NE9       30.02S
NEW ULM        CLEAR     72  55  56 NE8       30.02S
ST JAMES       CLOUDY    66  57  72 NE6       30.04R
FAIRMONT       MOCLDY    70  63  78 N7        30.01S
GLENCOE        CLEAR     73  62  69 NE6       30.03S
FARIBAULT      CLOUDY    70  63  78 N5        30.03R
OWATONNA       CLOUDY    68  63  83 E5        30.03S
WASECA         CLOUDY    70  63  78 NE6       30.03F
ALBERT LEA     CLOUDY    68  63  83 NE10G16   30.02S
$$
MNZ078>079-086>088-094>096-290200-
   Southeast Minnesota

CITY           SKY/WX    TMP DP  RH WIND       PRES   REMARKS
ROCHESTER      CLOUDY    65  61  87 NE13      30.02S
RED WING       CLOUDY    68  64  88 CALM      30.01S
STANTON        CLOUDY    72  63  73 VRB3      30.00S
DODGE CENTER   CLOUDY   N/A N/A N/A N7        30.03R
WINONA         CLOUDY    68  61  77 N3        30.00R
AUSTIN         CLOUDY    66  61  82 NE7       30.01R
PRESTON        CLOUDY    64  60  87 NE8       30.01S
$$
ABBREVIATIONS USED IN REMARKS
   TC - TEMPERATURES IN CELSIUS
  WCI - WIND CHILL INDEX
   HX - HEAT INDEX
  VSB - VISIBILITY
$$




USA.gov is the U.S. government's official web portal to all federal, state and local government web resources and services.